Home   Weather   Bryne   Past weeks

Flag for Norway Past Weather in Bryne, Norway — Yesterday and Last 2 Weeks

34 °F


Feels Like: 34 °F
Forecast: 44 / 50 °F
Wind: 1 mph from Southeast

Location: Stavanger / Sola

Current Time: Oct 25, 2016 at 1:48:58 AM

Latest Report: Oct 25, 2016 at 1:00 AM

Visibility: 25 mi

Pressure: 30.25 "Hg

Humidity: 86%

Dew Point: 30 °F

Location of BryneLocation

Past Weather in Bryne — Graph


Bryne Temperature Yesterday

Maximum temperature yesterday: 50 °F (at 2:00 PM)
Minimum temperature yesterday: 35 °F (at 11:00 PM)
Average temperature yesterday: 43 °F

High & Low Weather Summary for the Past Weeks

High57 °F (Oct 10, 4:00 PM)94% (Oct 20, 3:00 AM)30.55 "Hg (Oct 20, 3:00 AM)
Low34 °F (Oct 25, 12:00 AM)32% (Oct 15, 1:00 PM)29.90 "Hg (Oct 18, 5:00 PM)
Average47 °F67%30.27 "Hg
* Reported Oct 10 12:00 AM — Oct 25 12:00 AM, Bryne, Weather by CustomWeather, © 2016

Note: Actual official high and low records may vary slightly from our data, if they occured in-between our weather recording intervals... More about our weather records


Bryne Weather History for the Previous 24 Hours

Scroll right to see more
Time TempWeatherWind HumidityBarometerVisibility
12:00 AM
Tue, Oct 25
34 °FClear.1 mph85%30.26 "Hg22 mi
11:00 PM
Mon, Oct 24
35 °FPassing clouds.1 mph82%30.26 "Hg17 mi
10:00 PM35 °FClear.1 mph80%30.26 "Hg25 mi
9:00 PM37 °FClear.1 mph75%30.26 "Hg31 mi
8:00 PM39 °FClear.No wind69%30.25 "Hg31 mi
7:00 PM45 °FClear.3 mph58%30.25 "Hg31 mi
6:00 PM46 °FPartly sunny.2 mph55%30.25 "Hg31 mi
5:00 PM47 °FScattered clouds.5 mph54%30.24 "Hg31 mi
4:00 PM48 °FSunny.5 mph51%30.23 "Hg25 mi
3:00 PM49 °FPartly sunny.5 mph50%30.23 "Hg25 mi
2:00 PM50 °FSunny.6 mph52%30.23 "Hg25 mi
1:00 PM49 °FSunny.6 mph53%30.23 "Hg28 mi
12:00 PM49 °FScattered clouds.5 mph55%30.23 "Hg22 mi
11:00 AM48 °FPartly sunny.2 mph61%30.24 "Hg28 mi
10:00 AM44 °FQuite cool.3 mph73%30.23 "Hg28 mi
9:00 AM41 °FOvercast.3 mph74%30.23 "Hg31 mi
8:00 AM43 °FOvercast.5 mph71%30.21 "Hg31 mi
7:00 AM42 °FPassing clouds.2 mph74%30.20 "Hg31 mi
6:00 AM37 °FPassing clouds.3 mph80%30.19 "Hg31 mi
5:00 AM40 °FPassing clouds.1 mph76%30.19 "Hg31 mi
4:00 AM45 °FSprinkles. Passing clouds.3 mph63%30.18 "Hg31 mi
3:00 AM44 °FOvercast.2 mph65%30.19 "Hg31 mi
2:00 AM41 °FQuite cool.1 mph72%30.18 "Hg31 mi
1:00 AM42 °FOvercast.1 mph68%30.18 "Hg31 mi
Weather by CustomWeather, © 2016

See weather overviewHow to use our weather pages